Regional Weather Roundup
Issued by NWS Northern Indiana

Home | Current Version | Previous Version | Graphics & Text | Print | Product List | Glossary On
Versions: 1 2 3 4 5 6 7 8 9 10 11 12 13 14 15 16 17 18 19 20 21 22 23 24 25 26 27 28 29 30 31 32 33 34 35 36 37 38 39 40 41 42 43 44 45 46 47 48 49 50
841
ASUS43 KIWX 191610
RWRIWX

KIWX WEATHER ROUNDUP
NATIONAL WEATHER SERVICE NORTHERN INDIANA
1200 PM EDT THU OCT 19 2017

NOTE: "FAIR" INDICATES FEW OR NO CLOUDS BELOW 12,000 FEET WITH NO
SIGNIFICANT WEATHER AND/OR OBSTRUCTIONS TO VISIBILITY.

* THESE STATIONS ARE NOT UNDER NWS QUALITY CONTROL. THEY ALSO MAY NOT
  REPORT WEATHER SUCH AS PRECIPITATION OR FOG.

INZ001>027-191700-
NORTHERN INDIANA

CITY           SKY/WX    TMP DP  RH WIND       PRES   REMARKS
GARY*          MOSUNNY   64  28  25 N8        30.20R
VALPARAISO     SUNNY     65  46  50 N7        30.19R
MICHIGAN CITY* SUNNY     61  37  41 N8        30.20R
LAPORTE*       SUNNY     62  48  61 NW7       30.19R
KNOX*          SUNNY     61  46  59 NW5       30.18S
SOUTH BEND     SUNNY     62  50  64 NW9       30.18S
GOSHEN         SUNNY     61  49  64 W8        30.17S
MONTICELLO*    SUNNY     64  49  57 W8        30.18S
LOGANSPORT*    SUNNY     63  50  63 W8        30.20R
WARSAW*        SUNNY     61  50  67 W8        30.18F
AUBURN*        MOSUNNY   61  46  59 W7        30.18S
FORT WAYNE     PTSUNNY   64  48  56 W12       30.18R
HUNTINGTON*    SUNNY     63  49  59 W9        30.18R
PERU/GRISSOM   SUNNY     64  50  61 NW13      30.18S
MARION*        SUNNY     66  48  52 W9        30.19

$$
INZ028>050-191700-
CENTRAL INDIANA

CITY           SKY/WX    TMP DP  RH WIND       PRES   REMARKS
LAFAYETTE      SUNNY     62  51  67 SW6       30.20R
KOKOMO*        SUNNY     66  50  56 W10       30.20R
MUNCIE*        SUNNY     68  49  50 W7        30.19F
INDIANAPOLIS   MOSUNNY   65  50  58 W12       30.22S

$$
MIZ043>046-050>051-056>058-064>065-071>073-077>080-191700-
SOUTHWEST LOWER MICHIGAN

CITY           SKY/WX    TMP DP  RH WIND       PRES   REMARKS
BATTLE CREEK   MOSUNNY   63  48  58 W10       30.15R
BENTON HARBOR  SUNNY     62  38  40 NW8       30.18R
COLDWATER*     MOSUNNY   63  47  57 W6        30.16R
HILLSDALE*     SUNNY     63  46  55 W9        30.15R
HOLLAND        CLOUDY    64  36  35 VRB6      30.17R
GRAND RAPIDS   PTSUNNY   63  34  33 W12       30.14R
KALAMAZOO      CLOUDY    63  41  44 NW10      30.16R
STURGIS*       CLOUDY    61  49  65 W7        30.16S
THREE RIVERS*  FAIR      64  46  53 W9        30.17R

$$
OHZ001>008-015>018-024>025-191700-
NORTHWEST OHIO

CITY           SKY/WX    TMP DP  RH WIND       PRES   REMARKS
WAUSEON*       FAIR      64  50  59 W13       30.15S
DEFIANCE       MOSUNNY   63  48  58 VRB5      30.17R
FINDLAY        SUNNY     66  48  52 W16       30.16S
TOLEDO EXPRESS SUNNY     65  51  60 W16       30.14S
TOLEDO METCALF SUNNY     66  50  56 SW13      30.14F
LIMA           SUNNY     64  50  60 SW12      30.18S

$$
AND FOR LAKE MICHIGAN COASTAL AND OPEN LAKE BUOY OBSERVATIONS

STATION/POSITION TEMP    WIND        PRES    VSBY  WAVE
                 AIR SEA DIR/SP/G                  HT/PER
                 (F)     (DEG/KT/KT) (MB)    (MI)  (FT/S)
CALUMET HARBOR    62     340/  6/  9 1021.7R
MICHIGAN CITY     61     340/  7/  8   N/A
BURNS HARBOR      59     330/  4/  9 1023.0
SAINT JOSEPH      60     350/  5/  8 1022.7
SOUTH LAKE BUOY   58 60  320/ 10/ 12 1021.3          3/ 4
4 MI NW BRIDGMAN  60 59  360/  8/ 12 1022.4          2/ 4
MICHIGAN CITY     59 58  350/  6/ 10   N/A           2/ 3

$$
&&




USA.gov is the U.S. government's official web portal to all federal, state and local government web resources and services.